Location: Ballingbuur
(53.0000°N, 5.7667°E)
Time: 06:55:59
(UTC+00:00)

USA 305 - Pass Details

Date: 29 November 2020
Orbit: 565 x 578 km, 54.0° (Epoch: 22 January)

Event Time Altitude Azimuth Distance (km) Brightness Sun altitude
Exits shadow 05:40:58 26° 283° (WNW) 1,165 3.8 -14.8°
Maximum altitude 05:43:23 89° 199° (SSW) 586 2.9 -14.4°
Drops below altitude 10° 05:47:42 10° 105° (ESE) 1,891 7.0 -13.8°
Sets 05:49:57 0° 106° (ESE) 2,788 8.5 -13.5°
